"Pseudo-MPEC" for CAGLC22

Created 2024 Apr 22 14:22:06 UT using Find_Orb

Click here for an explanation of pseudo-MPECs

 
 Astrometry: 
     CAGLC22 1C2024 04 12.40759 15 00 55.39 +03 15 55.4    ~4LJ7 21.1 GVNEOCPG96
     CAGLC22 1C2024 04 12.41277 15 00 54.54 +03 15 45.5    ~4LJ7 21.3 GVNEOCPG96
     CAGLC22 1C2024 04 12.42312 15 00 52.98 +03 15 25.4    ~4LJ7 21.0 GVNEOCPG96
     CAGLC22*1C2024 04 20.24800014 35 51.382-01 47 05.57   ~4K9M 20.79GVNEOCPG96
     CAGLC22 1C2024 04 20.25314814 35 50.046-01 47 20.62   ~4K9M 20.19GVNEOCPG96
     CAGLC22 1C2024 04 20.25830214 35 48.786-01 47 35.30   ~4K9M 21.09GVNEOCPG96
     CAGLC22 1C2024 04 20.26346014 35 47.512-01 47 50.64   ~4K9M 20.45GVNEOCPG96
     CAGLC22 mC2024 04 20.35614914 35 24.480-01 52 15.80   ~4K9q 20.49GVNEOCPI52
     CAGLC22 mC2024 04 20.35709514 35 24.290-01 52 18.50   ~4K9q 21.40GVNEOCPI52
     CAGLC22 mC2024 04 20.35804714 35 24.050-01 52 21.20   ~4K9q 20.44GVNEOCPI52
     CAGLC22 mC2024 04 20.35899214 35 23.790-01 52 25.10   ~4K9q       VNEOCPI52
     CAGLC22 KC2024 04 21.25336214 31 46.297-02 36 15.91   ~4L6q 20.64GVNEOCPI52
     CAGLC22 KC2024 04 21.25640314 31 45.516-02 36 25.31   ~4L6q 20.35GVNEOCPI52
     CAGLC22 KC2024 04 21.25944014 31 44.677-02 36 34.16   ~4L6q 21.05GVNEOCPI52

Station data:
(G96) Mt. Lemmon Survey  (N32.442729 W110.788720)  US/Arizona.  Observer E.
   J. Christensen. 1.5-m reflector + 10K CCD.
(I52) Steward Observatory, Mt. Lemmon Station  (N32.442570 W110.788920)
   US/Arizona.  Observers T. A. Pruyne, B. M. Africano, E. J. Christensen, G.
   A. Farneth, D. C. Fuls, A. R. Gibbs, A. D. Grauer, H. Gröller, J. A.
   Johnson, R. A. Kowalski, S. M. Larson, G. J. Leonard, D. Rankin, R. L.
   Seaman, F. C. Shelly, K. W. Wierzchoś. 1.0-m prime focus + CCD.

Orbital elements:  CAGLC22
   Perihelion 2024 Aug 1.26526 +/- 1.03 TT =  6:21:58 (JD 2460523.76526)
Epoch 2024 Apr 21.0 TT = JDT 2460421.5   Earth MOID: 0.1592      AutoNEOCP
M 295.81426401 +/- 2.3              (J2000 ecliptic)
n   0.62763966 +/- 0.0169           Peri.  274.49848 +/- 1.0
a   1.35102212 +/- 0.0243           Node    37.51217 +/- 0.046
e   0.3127112 +/- 0.0112            Incl.   27.34740 +/- 0.8
P   1.57/573.57d           H 22.30  G  0.15   U 10.0
q 0.92854235 +/- 0.00152    Q 1.77350190 +/- 0.047
From 14 observations 2024 Apr. 12-21; mean residual 0".41
Residuals in arcseconds: 
240412 G96  .16-  .64+    240420 G96  .16-  .10+    240420 I52  .13-  .88-    
240412 G96  .56-  .24+    240420 G96  .18-  .47-    240421 I52  .16+  .07+    
240412 G96  .71+  .87-    240420 I52  .40-  .25+    240421 I52  .29+  .16-    
240420 G96  .69+  .35+    240420 I52  .28+  .27+    240421 I52  .47-  .14+    
240420 G96  .33-  .03+    240420 I52  .24+  .31+    

Ephemerides (geocentric):
Date (UTC) HH   RA             Dec           delta  r     elong  mag " sig PA
---- --------  ------------   ------------  ------ ------ -----  --- --------
2024 04 22 14  14 26 01.474   -03 44 57.26  .28249 1.2841 169.5 20.7 .962  25
2024 04 22 15  14 25 50.322   -03 47 11.31  .28223 1.2839 169.5 20.7 .986  26
2024 04 22 16  14 25 39.148   -03 49 25.64  .28197 1.2837 169.6 20.7 1.01  27
2024 04 22 17  14 25 27.951   -03 51 40.23  .28171 1.2835 169.7 20.7 1.04  28
2024 04 22 18  14 25 16.731   -03 53 55.10  .28145 1.2833 169.7 20.6 1.06  29
2024 04 22 19  14 25 05.487   -03 56 10.23  .28119 1.2831 169.8 20.6 1.09  30
2024 04 22 20  14 24 54.221   -03 58 25.63  .28093 1.2829 169.9 20.6 1.12  31
2024 04 22 21  14 24 42.932   -04 00 41.30  .28067 1.2827 169.9 20.6 1.15  31
2024 04 22 22  14 24 31.620   -04 02 57.23  .28041 1.2825 170.0 20.6 1.18  32
2024 04 22 23  14 24 20.285   -04 05 13.44  .28016 1.2823 170.1 20.6 1.22  33
2024 04 23 00  14 24 08.926   -04 07 29.92  .27990 1.2821 170.1 20.6 1.25  34
2024 04 23 01  14 23 57.545   -04 09 46.66  .27964 1.2819 170.2 20.6 1.29  34
2024 04 23 02  14 23 46.140   -04 12 03.67  .27938 1.2817 170.3 20.6 1.32  35
2024 04 23 03  14 23 34.713   -04 14 20.96  .27913 1.2815 170.3 20.6 1.36  36
2024 04 23 04  14 23 23.262   -04 16 38.51  .27887 1.2813 170.4 20.6 1.40  36
2024 04 23 05  14 23 11.788   -04 18 56.33  .27862 1.2811 170.5 20.6 1.44  37
2024 04 23 06  14 23 00.291   -04 21 14.42  .27836 1.2809 170.5 20.6 1.48  38
2024 04 23 07  14 22 48.770   -04 23 32.78  .27811 1.2807 170.6 20.6 1.52  38
2024 04 23 08  14 22 37.227   -04 25 51.40  .27786 1.2805 170.7 20.6 1.56  39
2024 04 23 09  14 22 25.660   -04 28 10.30  .27760 1.2803 170.7 20.6 1.61  39
2024 04 23 10  14 22 14.070   -04 30 29.47  .27735 1.2801 170.8 20.6 1.65  40
2024 04 23 11  14 22 02.456   -04 32 48.90  .27710 1.2799 170.8 20.6 1.70  40
2024 04 23 12  14 21 50.820   -04 35 08.60  .27685 1.2797 170.9 20.6 1.75  41
2024 04 23 13  14 21 39.160   -04 37 28.58  .27660 1.2795 171.0 20.6 1.80  41
2024 04 23 14  14 21 27.477   -04 39 48.82  .27635 1.2793 171.0 20.6 1.85  42
2024 04 23 15  14 21 15.770   -04 42 09.33  .27610 1.2791 171.1 20.6 1.90  42
2024 04 23 16  14 21 04.040   -04 44 30.11  .27585 1.2789 171.2 20.5 1.95  43
2024 04 23 17  14 20 52.287   -04 46 51.15  .27560 1.2787 171.2 20.5 2.01  43
2024 04 23 18  14 20 40.510   -04 49 12.47  .27535 1.2785 171.3 20.5 2.06  44
2024 04 23 19  14 20 28.710   -04 51 34.05  .27511 1.2783 171.3 20.5 2.12  44
2024 04 23 20  14 20 16.887   -04 53 55.91  .27486 1.2781 171.4 20.5 2.18  44
2024 04 23 21  14 20 05.040   -04 56 18.03  .27461 1.2779 171.4 20.5 2.24  45
2024 04 23 22  14 19 53.170   -04 58 40.42  .27437 1.2777 171.5 20.5 2.30  45
2024 04 23 23  14 19 41.276   -05 01 03.08  .27412 1.2775 171.6 20.5 2.36  46
2024 04 24 00  14 19 29.359   -05 03 26.01  .27388 1.2773 171.6 20.5 2.43  46
2024 04 24 01  14 19 17.418   -05 05 49.20  .27363 1.2771 171.7 20.5 2.49  46
2024 04 24 02  14 19 05.454   -05 08 12.67  .27339 1.2769 171.7 20.5 2.56  47
2024 04 24 03  14 18 53.466   -05 10 36.40  .27314 1.2767 171.8 20.5 2.63  47
2024 04 24 04  14 18 41.455   -05 13 00.40  .27290 1.2765 171.8 20.5 2.70  47
2024 04 24 05  14 18 29.420   -05 15 24.67  .27266 1.2763 171.9 20.5 2.77  47
2024 04 24 06  14 18 17.362   -05 17 49.20  .27242 1.2761 172.0 20.5 2.84  48
2024 04 24 07  14 18 05.280   -05 20 14.01  .27217 1.2759 172.0 20.5 2.91  48
2024 04 24 08  14 17 53.175   -05 22 39.08  .27193 1.2757 172.1 20.5 2.99  48
2024 04 24 09  14 17 41.046   -05 25 04.42  .27169 1.2755 172.1 20.5 3.06  49
2024 04 24 10  14 17 28.893   -05 27 30.02  .27145 1.2753 172.2 20.5 3.14  49
2024 04 24 11  14 17 16.717   -05 29 55.89  .27121 1.2751 172.2 20.5 3.22  49
2024 04 24 12  14 17 04.517   -05 32 22.03  .27098 1.2748 172.3 20.5 3.30  49
2024 04 24 13  14 16 52.293   -05 34 48.44  .27074 1.2746 172.3 20.5 3.39  49